TimeCEST,TemperatureF,Dew PointF,Humidity,Sea Level PressureIn,VisibilityMPH,Wind Direction,Wind SpeedMPH,Gust SpeedMPH,PrecipitationIn,Events,Conditions,WindDirDegrees,DateUTC
12:00 AM,69.8,55.4,60,30.09,-9999.0,Variable,1.2,-,N/A,,Clear,0,2012-10-02 22:00:00
12:30 AM,69.8,57.2,64,30.09,-9999.0,Variable,1.2,-,N/A,,Clear,0,2012-10-02 22:30:00
1:00 AM,66.2,59.0,78,30.09,-9999.0,Variable,1.2,-,N/A,,Clear,0,2012-10-02 23:00:00
4:30 AM,62.6,59.0,88,30.06,-9999.0,South,1.2,-,N/A,,Clear,180,2012-10-03 02:30:00
5:00 AM,62.6,59.0,88,30.09,-9999.0,Variable,2.3,-,N/A,,Clear,0,2012-10-03 03:00:00
5:30 AM,62.6,59.0,88,30.06,-9999.0,SSE,2.3,-,N/A,,Clear,150,2012-10-03 03:30:00
6:00 AM,60.8,59.0,94,30.06,-9999.0,Variable,1.2,-,N/A,,Clear,0,2012-10-03 04:00:00
6:30 AM,62.6,59.0,88,30.06,-9999.0,Calm,Calm,-,N/A,,Clear,0,2012-10-03 04:30:00
7:00 AM,62.6,59.0,88,30.06,-9999.0,Calm,Calm,-,N/A,,Clear,0,2012-10-03 05:00:00
7:30 AM,60.8,59.0,94,30.06,5.6,NNE,3.5,-,N/A,,Unknown,20,2012-10-03 05:30:00
8:00 AM,60.8,59.0,94,30.06,5.6,NNE,3.5,-,N/A,,Unknown,30,2012-10-03 06:00:00
8:30 AM,60.8,59.0,94,30.06,4.3,NE,3.5,-,N/A,,Unknown,50,2012-10-03 06:30:00
9:00 AM,60.8,59.0,94,30.09,4.3,Variable,2.3,-,N/A,,Unknown,0,2012-10-03 07:00:00
9:30 AM,62.6,59.0,88,30.09,4.3,NE,3.5,-,N/A,,Unknown,40,2012-10-03 07:30:00
10:00 AM,64.4,59.0,83,30.09,4.3,ENE,5.8,-,N/A,,Unknown,60,2012-10-03 08:00:00
10:30 AM,66.2,59.0,78,30.12,5.6,NE,3.5,-,N/A,,Unknown,50,2012-10-03 08:30:00
11:00 AM,69.8,59.0,68,30.09,-9999.0,ENE,5.8,-,N/A,,Clear,60,2012-10-03 09:00:00
11:30 AM,69.8,57.2,64,30.12,-9999.0,ENE,4.6,-,N/A,,Clear,70,2012-10-03 09:30:00
12:00 PM,73.4,57.2,57,30.09,-9999.0,East,3.5,-,N/A,,Clear,90,2012-10-03 10:00:00
12:30 PM,75.2,55.4,50,30.09,-9999.0,East,3.5,-,N/A,,Clear,90,2012-10-03 10:30:00
1:00 PM,77.0,57.2,50,30.09,-9999.0,Variable,2.3,-,N/A,,Clear,0,2012-10-03 11:00:00
1:30 PM,78.8,53.6,42,30.09,-9999.0,East,3.5,-,N/A,,Clear,100,2012-10-03 11:30:00
2:00 PM,78.8,53.6,42,30.06,-9999.0,ENE,2.3,-,N/A,,Clear,70,2012-10-03 12:00:00
2:30 PM,78.8,51.8,39,30.06,-9999.0,Variable,2.3,-,N/A,,Clear,0,2012-10-03 12:30:00
3:00 PM,82.4,51.8,35,30.04,-9999.0,Variable,2.3,-,N/A,,Clear,0,2012-10-03 13:00:00
3:30 PM,84.2,50.0,30,30.04,-9999.0,WSW,1.2,-,N/A,,Clear,240,2012-10-03 13:30:00
4:00 PM,82.4,46.4,28,30.01,-9999.0,Variable,1.2,-,N/A,,Clear,0,2012-10-03 14:00:00
4:30 PM,82.4,48.2,30,30.01,-9999.0,SSW,1.2,-,N/A,,Clear,210,2012-10-03 14:30:00
5:00 PM,82.4,48.2,30,30.01,-9999.0,Variable,2.3,-,N/A,,Clear,0,2012-10-03 15:00:00
5:30 PM,82.4,46.4,28,30.01,-9999.0,Variable,2.3,-,N/A,,Clear,0,2012-10-03 15:30:00
6:00 PM,82.4,48.2,30,30.01,-9999.0,WNW,3.5,-,N/A,,Clear,300,2012-10-03 16:00:00
6:30 PM,82.4,46.4,28,30.01,-9999.0,NW,3.5,-,N/A,,Clear,310,2012-10-03 16:30:00
7:00 PM,82.4,48.2,30,30.01,-9999.0,Calm,Calm,-,N/A,,Clear,0,2012-10-03 17:00:00
7:30 PM,80.6,46.4,30,29.98,-9999.0,Variable,1.2,-,N/A,,Clear,0,2012-10-03 17:30:00
8:00 PM,80.6,48.2,32,29.98,-9999.0,Variable,2.3,-,N/A,,Clear,0,2012-10-03 18:00:00
8:30 PM,77.0,51.8,41,30.01,-9999.0,NNW,3.5,-,N/A,,Clear,340,2012-10-03 18:30:00
9:00 PM,75.2,50.0,41,30.01,-9999.0,Variable,1.2,-,N/A,,Clear,0,2012-10-03 19:00:00
9:30 PM,71.6,59.0,64,30.01,-9999.0,East,1.2,-,N/A,,Clear,90,2012-10-03 19:30:00
10:00 PM,69.8,59.0,68,30.01,-9999.0,East,1.2,-,N/A,,Clear,100,2012-10-03 20:00:00
10:30 PM,68.0,59.0,73,30.01,-9999.0,Variable,1.2,-,N/A,,Clear,0,2012-10-03 20:30:00
11:00 PM,68.0,59.0,73,30.01,-9999.0,SSE,1.2,-,N/A,,Clear,150,2012-10-03 21:00:00
11:30 PM,68.0,57.2,68,30.01,-9999.0,Variable,1.2,-,N/A,,Clear,0,2012-10-03 21:30:00